[[{"header":{"parameterUnit":"m.s-1","parameterCategory":1,"la1":30.2992,"la2":30.254,"lo1":-89.0895,"lo2":-89.0443,"dy":0.0025,"dx":0.0025,"nx":19,"ny":19,"refTime":"2026-04-12T03:00:00:Z","depth":0,"parameterNumber":2,"parameterNumberName":"U-component_of_WINDS"},"data":[0,0,0,-4.9289,-4.9292,-4.939,-4.9391,-4.9533,-4.9534,0,0,0,0,0,0,0,0,0,0,0,-4.927,-4.9272,-4.9289,-4.9292,-4.939,-4.9391,-4.9533,-4.9534,0,0,0,0,0,0,0,0,0,0,0,-4.927,-4.9271,-4.9273,-4.9292,-4.939,-4.9391,-4.9532,-4.9452,0,0,0,0,0,0,0,0,0,0,-4.9353,-4.9346,-4.9271,-4.9273,-4.9293,-4.939,-4.9391,-4.9448,-4.9457,-4.9496,0,-4.9533,0,-4.9537,-4.9545,-4.9546,0,0,0,-4.9283,-4.9338,-4.9356,-4.9273,-4.9294,-4.939,-4.9344,-4.9453,-4.9463,-4.9508,-4.9535,-4.954,-4.9539,-4.9546,-4.9547,-4.9802,-4.9803,0,0,-4.9278,-4.9293,-4.9349,-4.9363,-4.935,-4.934,-4.9347,-4.9459,-4.9489,-4.9536,-4.9543,-4.9541,-4.9547,-4.9548,-4.98,-4.9802,0,0,0,-4.9268,-4.929,-4.9304,-4.9358,-4.9375,-4.9344,-4.9351,-4.9484,-4.9488,-4.9544,-4.9543,-4.9548,-4.955,-4.9798,-4.9801,-4.9895,0,0,0,-4.9264,-4.9284,-4.9302,-4.9312,-4.9373,-4.9431,-4.9374,-4.948,-4.9492,-4.9542,-4.9548,-4.9552,-4.9797,-4.98,-4.9888,-4.9936,0,0,0,-4.926,-4.9283,-4.9301,-4.9313,-4.9356,-4.9428,-4.9438,-4.9482,-4.9492,-4.9546,-4.9552,-4.9795,-4.9799,-4.9883,-4.9926,-5.0008,0,0,0,-4.926,-4.9381,-4.9303,-4.9438,-4.9356,-4.9487,-4.9437,-4.9534,-4.9591,-4.9549,-4.9797,-4.9801,-4.9881,-4.992,-5.0002,-5.008,-5.0114,0,0,-4.9421,-4.9401,-4.9479,-4.9412,-4.9562,-4.947,-4.9633,-4.967,-4.966,-4.9755,-4.9761,-4.989,-4.9926,-5.0007,-5.0299,-5.0326,0,0,0,-4.9535,-4.9592,-4.9628,-4.9685,-4.9719,-4.9752,-4.9763,-4.9778,-4.9858,-4.9713,-4.9942,-4.9962,-5.0009,-5.0046,-5.0069,-5.0109,-4.9818,-4.9818,-4.9817,-4.9782,-4.9767,-4.9896,-4.9894,-4.995,-4.9963,-5.0008,-5.0029,-4.9994,-5.0049,-5.0076,-5.0256,-5.0299,-5.0316,-5.0358,-5.0116,-5.0117,-5.0117,-5.0117,-5.0017,-5.0095,-5.0051,-5.016,-5.0143,-5.0234,-5.0253,-5.0226,-5.0309,-5.0232,-5.0273,-5.0191,-5.0346,-5.0382,-5.0124,-5.0123,-5.0122,-5.0121,-5.0121,-5.0176,-5.0211,-5.023,-5.0314,-5.038,-5.0373,-5.0457,-5.0437,-5.042,-5.046,-5.0488,-5.0487,-5.0483,-5.0475,-5.0476,-5.0477,-5.0477,-5.0478,-5.0478,-5.0334,-5.0352,-5.0425,-5.0475,-5.0512,-5.0557,-5.0575,-5.061,-5.0644,-5.0623,-5.0623,-5.0584,-5.0365,-5.031,-5.0488,-5.0486,-5.0485,-5.0484,-5.0483,-5.0576,-5.052,-5.0633,-5.067,-5.0729,-5.0798,-5.0774,-5.0848,-5.0874,-5.0916,-5.087,-5.0711,-5.0688,-5.067,-5.0624,-5.0873,-5.0873,-5.0873,-5.0873,-5.0711,-5.0699,-5.0812,-5.0873,-5.0931,-5.0923,-5.1052,-5.1069,-5.1076,-5.1092,-5.1054,-5.0992,-5.0975,-5.0962,-5.0937,-5.0895,-5.1206,-5.1206,-5.1207,-5.0859,-5.0853,-5.0966,-5.0976,-5.1022,-5.1062,-5.1183,-5.1255,-5.1252,-5.122,-5.1104,-5.109,-5.0991,-5.0959,-5.0921,-5.0883,-5.0804,0,0]},{"header":{"parameterUnit":"m.s-1","parameterCategory":1,"la1":30.2992,"la2":30.254,"lo1":-89.0895,"lo2":-89.0443,"dy":0.0025,"dx":0.0025,"nx":19,"ny":19,"refTime":"2026-04-12T03:00:00:Z","depth":0,"parameterNumber":3,"parameterNumberName":"V-component_of_WINDS"},"data":[0,0,0,2.2,2.1999,2.1941,2.1941,2.1855,2.1855,0,0,0,0,0,0,0,0,0,0,0,2.2012,2.2011,2.2,2.1998,2.1941,2.1941,2.1856,2.1855,0,0,0,0,0,0,0,0,0,0,0,2.2012,2.2011,2.201,2.1998,2.1941,2.1941,2.1856,2.1903,0,0,0,0,0,0,0,0,0,0,2.196,2.1966,2.2011,2.201,2.1998,2.1941,2.1941,2.1905,2.19,2.1877,0,2.1857,0,2.1855,2.1848,2.1848,0,0,0,2.2001,2.1971,2.1961,2.201,2.1997,2.1941,2.1968,2.1902,2.1896,2.187,2.1856,2.1853,2.1854,2.1848,2.1847,2.1715,2.1714,0,0,2.2004,2.1997,2.1965,2.1957,2.1967,2.1969,2.1966,2.1899,2.1882,2.1856,2.1852,2.1852,2.1847,2.1846,2.1716,2.1715,0,0,0,2.2012,2.1999,2.1991,2.196,2.1951,2.1968,2.1964,2.1885,2.1883,2.1851,2.1851,2.1847,2.1845,2.1716,2.1715,2.1673,0,0,0,2.2014,2.2004,2.1992,2.1987,2.1952,2.1917,2.1951,2.1888,2.1881,2.1852,2.1847,2.1845,2.1717,2.1716,2.1676,2.1653,0,0,0,2.2017,2.2004,2.1994,2.1987,2.1963,2.1919,2.1913,2.1887,2.1881,2.1848,2.1844,2.1718,2.1716,2.1679,2.1657,2.1618,0,0,0,2.2017,2.1954,2.1993,2.1923,2.1963,2.1894,2.1914,2.1862,2.1828,2.1846,2.1717,2.1715,2.1679,2.166,2.1621,2.1584,2.1568,0,0,2.1933,2.1943,2.1902,2.1937,2.186,2.1903,2.1819,2.1793,2.1795,2.1741,2.1738,2.1675,2.1658,2.1619,2.148,2.1468,0,0,0,2.1873,2.1844,2.1825,2.1796,2.1778,2.1761,2.175,2.1741,2.1697,2.1767,2.165,2.164,2.1617,2.16,2.1589,2.1571,2.1707,2.1707,2.1707,2.1741,2.1751,2.1685,2.169,2.166,2.1653,2.163,2.1617,2.1631,2.1604,2.1587,2.1503,2.1482,2.1474,2.1455,2.1569,2.1569,2.1569,2.1568,2.1618,2.1579,2.1607,2.1552,2.1563,2.1517,2.1508,2.1521,2.1479,2.1515,2.1495,2.1533,2.146,2.1444,2.1565,2.1566,2.1566,2.1567,2.1567,2.1533,2.1516,2.151,2.1472,2.1442,2.1447,2.1408,2.1418,2.1427,2.1408,2.1393,2.1394,2.1396,2.1401,2.14,2.14,2.14,2.14,2.1399,2.1446,2.1441,2.1408,2.1388,2.1373,2.1355,2.135,2.1334,2.132,2.133,2.133,2.1349,2.1452,2.1478,2.1395,2.1396,2.1396,2.1397,2.1397,2.1318,2.135,2.1299,2.1285,2.1264,2.1235,2.1251,2.1219,2.1208,2.1189,2.1213,2.1288,2.1298,2.1306,2.1328,2.1211,2.1211,2.1211,2.1211,2.1246,2.1254,2.1207,2.1184,2.1162,2.1173,2.1115,2.1112,2.1113,2.1107,2.1126,2.1155,2.1164,2.1169,2.118,2.1201,2.1054,2.1054,2.1054,2.1169,2.1176,2.1125,2.1131,2.1117,2.1104,2.1051,2.1023,2.103,2.1048,2.1103,2.1109,2.1158,2.1173,2.1189,2.1206,2.1244,0,0]}]]